Time,TemperatureF,DewpointF,PressureIn,WindDirection,WindDirectionDegrees,WindSpeedMPH,WindSpeedGustMPH,Humidity,HourlyPrecipIn,Conditions,Clouds,dailyrainin,SoftwareType,DateUTC
2013-02-20 00:00:00,35.5,23.0,30.22,North,349,0.0,4.0,60,0.00,,SKC,0.40,VWS V13.00,2013-02-20 06:00:00,
2013-02-20 00:05:00,35.5,23.0,30.22,NNW,346,1.0,2.0,60,0.00,,SKC,0.00,VWS V13.00,2013-02-20 06:05:00,
2013-02-20 00:10:00,35.6,23.1,30.22,NNW,346,1.0,2.0,60,0.00,,SKC,0.00,VWS V13.00,2013-02-20 06:10:00,
2013-02-20 00:15:00,35.6,23.1,30.22,NNW,346,1.0,2.0,60,0.00,,SKC,0.00,VWS V13.00,2013-02-20 06:15:00,
2013-02-20 00:20:00,35.6,23.1,30.21,NNW,346,1.0,2.0,60,0.00,,SKC,0.00,VWS V13.00,2013-02-20 06:20:00,
2013-02-20 00:25:00,35.6,23.1,30.21,NNW,336,0.0,2.0,60,0.00,,SKC,0.00,VWS V13.00,2013-02-20 06:25:00,
2013-02-20 00:30:00,35.5,23.0,30.21,NNW,336,0.0,2.0,60,0.00,,SKC,0.00,VWS V13.00,2013-02-20 06:30:00,
2013-02-20 00:35:00,35.5,23.0,30.21,NNW,336,0.0,1.0,60,0.00,,SKC,0.00,VWS V13.00,2013-02-20 06:35:00,
2013-02-20 00:40:00,35.3,22.8,30.21,NNW,336,0.0,1.0,60,0.00,,SKC,0.00,VWS V13.00,2013-02-20 06:40:00,
2013-02-20 00:45:00,35.1,23.0,30.21,NNW,336,0.0,1.0,61,0.00,,SKC,0.00,VWS V13.00,2013-02-20 06:45:00,
2013-02-20 00:50:00,34.9,22.8,30.21,NNW,336,0.0,1.0,61,0.00,,SKC,0.00,VWS V13.00,2013-02-20 06:50:00,
2013-02-20 00:55:00,34.7,23.4,30.22,NNW,336,1.0,1.0,63,0.00,,SKC,0.00,VWS V13.00,2013-02-20 06:55:00,
2013-02-20 01:00:00,34.5,23.2,30.22,NNW,336,0.0,1.0,63,0.00,,SKC,0.00,VWS V13.00,2013-02-20 07:00:00,
2013-02-20 01:05:00,34.4,23.1,30.22,NNW,336,0.0,2.0,63,0.00,,SKC,0.00,VWS V13.00,2013-02-20 07:05:00,
2013-02-20 01:10:00,34.3,23.4,30.22,NNW,336,0.0,2.0,64,0.00,,SKC,0.00,VWS V13.00,2013-02-20 07:10:00,
2013-02-20 01:15:00,34.2,23.3,30.22,NNW,336,0.0,2.0,64,0.00,,SKC,0.00,VWS V13.00,2013-02-20 07:15:00,
2013-02-20 01:20:00,34.0,23.5,30.21,NNW,336,0.0,2.0,65,0.00,,SKC,0.00,VWS V13.00,2013-02-20 07:20:00,
2013-02-20 01:25:00,33.7,23.6,30.21,NNW,336,0.0,2.0,66,0.00,,SKC,0.00,VWS V13.00,2013-02-20 07:25:00,
2013-02-20 01:30:00,33.7,23.6,30.21,NNW,336,1.0,2.0,66,0.00,,SKC,0.00,VWS V13.00,2013-02-20 07:30:00,
2013-02-20 01:35:00,33.7,23.6,30.21,NNW,336,0.0,0.0,66,0.00,,SKC,0.00,VWS V13.00,2013-02-20 07:35:00,
2013-02-20 01:40:00,33.7,23.6,30.21,NNW,336,0.0,0.0,66,0.00,,SKC,0.00,VWS V13.00,2013-02-20 07:40:00,
2013-02-20 01:45:00,33.7,23.6,30.20,NNW,336,0.0,0.0,66,0.00,,SKC,0.00,VWS V13.00,2013-02-20 07:45:00,
2013-02-20 01:50:00,33.5,23.7,30.20,NNW,336,2.0,3.0,67,0.00,,SKC,0.00,VWS V13.00,2013-02-20 07:50:00,
2013-02-20 01:55:00,33.4,24.0,30.20,NNW,336,0.0,3.0,68,0.00,,SKC,0.00,VWS V13.00,2013-02-20 07:55:00,
2013-02-20 02:00:00,33.4,23.6,30.20,NNW,336,1.0,3.0,67,0.00,,SKC,0.00,VWS V13.00,2013-02-20 08:00:00,
2013-02-20 02:05:00,33.3,23.9,30.20,NNW,336,0.0,0.0,68,0.00,,SKC,0.00,VWS V13.00,2013-02-20 08:05:00,
2013-02-20 02:10:00,32.9,24.2,30.20,NNW,336,0.0,0.0,70,0.00,,SKC,0.00,VWS V13.00,2013-02-20 08:10:00,
2013-02-20 02:15:00,32.3,24.6,30.19,NNW,336,0.0,0.0,73,0.00,,SKC,0.00,VWS V13.00,2013-02-20 08:15:00,
2013-02-20 02:20:00,31.6,24.3,30.19,NNW,336,0.0,0.0,74,0.00,,SKC,0.00,VWS V13.00,2013-02-20 08:20:00,
2013-02-20 02:25:00,31.1,23.8,30.19,NNW,336,0.0,0.0,74,0.00,,SKC,0.00,VWS V13.00,2013-02-20 08:25:00,
2013-02-20 02:30:00,30.9,23.6,30.19,NNW,336,0.0,0.0,74,0.00,,SKC,0.00,VWS V13.00,2013-02-20 08:30:00,
2013-02-20 02:35:00,30.8,23.5,30.19,NNW,336,0.0,0.0,74,0.00,,SKC,0.00,VWS V13.00,2013-02-20 08:35:00,
2013-02-20 02:40:00,30.7,23.7,30.19,NNW,336,0.0,0.0,75,0.00,,SKC,0.00,VWS V13.00,2013-02-20 08:40:00,
2013-02-20 02:45:00,30.8,23.8,30.19,NNW,336,0.0,0.0,75,0.00,,SKC,0.00,VWS V13.00,2013-02-20 08:45:00,
2013-02-20 02:50:00,30.7,24.0,30.19,NNW,336,0.0,0.0,76,0.00,,SKC,0.00,VWS V13.00,2013-02-20 08:50:00,
2013-02-20 02:55:00,30.5,24.2,30.19,NNW,336,0.0,0.0,77,0.00,,SKC,0.00,VWS V13.00,2013-02-20 08:55:00,
2013-02-20 03:00:00,30.5,24.2,30.19,NNW,336,0.0,0.0,77,0.00,,SKC,0.00,VWS V13.00,2013-02-20 09:00:00,
2013-02-20 03:04:00,30.4,24.1,30.19,NNW,336,0.0,0.0,77,0.00,,SKC,0.00,VWS V13.00,2013-02-20 09:04:00,
2013-02-20 03:09:00,30.2,24.2,30.19,NNW,336,0.0,0.0,78,0.00,,SKC,0.00,VWS V13.00,2013-02-20 09:09:00,
2013-02-20 03:14:00,30.0,24.3,30.19,NNW,336,0.0,0.0,79,0.00,,SKC,0.00,VWS V13.00,2013-02-20 09:14:00,
2013-02-20 03:19:00,29.9,23.9,30.19,NNW,336,0.0,0.0,78,0.00,,SKC,0.00,VWS V13.00,2013-02-20 09:19:00,
2013-02-20 03:24:00,30.0,24.0,30.18,NNW,336,0.0,0.0,78,0.00,,SKC,0.00,VWS V13.00,2013-02-20 09:24:00,
2013-02-20 03:29:00,29.8,24.1,30.18,NNW,336,0.0,0.0,79,0.00,,SKC,0.00,VWS V13.00,2013-02-20 09:29:00,
2013-02-20 03:34:00,29.7,24.3,30.18,NNW,336,0.0,0.0,80,0.00,,SKC,0.00,VWS V13.00,2013-02-20 09:34:00,
2013-02-20 03:39:00,29.7,24.3,30.18,NNW,336,0.0,0.0,80,0.00,,SKC,0.00,VWS V13.00,2013-02-20 09:39:00,
2013-02-20 03:44:00,29.6,23.9,30.18,NNW,336,0.0,0.0,79,0.00,,SKC,0.00,VWS V13.00,2013-02-20 09:44:00,
2013-02-20 03:49:00,29.6,23.9,30.18,NNW,336,0.0,0.0,79,0.00,,SKC,0.00,VWS V13.00,2013-02-20 09:49:00,
2013-02-20 03:54:00,29.5,23.8,30.18,NNW,336,0.0,0.0,79,0.00,,SKC,0.00,VWS V13.00,2013-02-20 09:54:00,
2013-02-20 03:59:00,29.3,23.9,30.18,NNW,336,0.0,0.0,80,0.00,,SKC,0.00,VWS V13.00,2013-02-20 09:59:00,
2013-02-20 04:04:00,29.2,25.0,30.20,NNW,336,0.0,0.0,84,0.00,,SKC,0.00,VWS V13.00,2013-02-20 10:04:00,
2013-02-20 04:09:00,29.3,23.9,30.20,NNW,336,0.0,0.0,80,0.00,,SKC,0.00,VWS V13.00,2013-02-20 10:09:00,
2013-02-20 04:14:00,29.6,23.9,30.19,NNW,336,0.0,0.0,79,0.00,,SKC,0.00,VWS V13.00,2013-02-20 10:14:00,
2013-02-20 04:19:00,29.8,23.8,30.19,NNW,336,0.0,1.0,78,0.00,,SKC,0.00,VWS V13.00,2013-02-20 10:19:00,
2013-02-20 04:24:00,30.0,24.0,30.19,NNW,336,0.0,1.0,78,0.00,,SKC,0.00,VWS V13.00,2013-02-20 10:24:00,
2013-02-20 04:29:00,30.3,24.0,30.19,NNW,336,0.0,2.0,77,0.00,,SKC,0.00,VWS V13.00,2013-02-20 10:29:00,
2013-02-20 04:34:00,30.5,24.2,30.20,North,355,3.0,3.0,77,0.00,,SKC,0.00,VWS V13.00,2013-02-20 10:34:00,
2013-02-20 04:39:00,30.4,24.1,30.20,North,355,0.0,4.0,77,0.00,,SKC,0.00,VWS V13.00,2013-02-20 10:39:00,
2013-02-20 04:44:00,30.3,24.0,30.20,NNW,348,0.0,4.0,77,0.00,,SKC,0.00,VWS V13.00,2013-02-20 10:44:00,
2013-02-20 04:49:00,30.5,24.5,30.21,NW,316,0.0,4.0,78,0.00,,SKC,0.00,VWS V13.00,2013-02-20 10:49:00,
2013-02-20 04:54:00,30.8,24.8,30.21,WNW,298,0.0,4.0,78,0.00,,SKC,0.00,VWS V13.00,2013-02-20 10:54:00,
2013-02-20 04:59:00,30.9,24.9,30.21,WNW,298,1.0,4.0,78,0.00,,SKC,0.00,VWS V13.00,2013-02-20 10:59:00,
2013-02-20 05:04:00,30.8,24.8,30.22,WNW,298,2.0,3.0,78,0.00,,SKC,0.00,VWS V13.00,2013-02-20 11:04:00,
2013-02-20 05:09:00,30.9,24.9,30.21,WNW,286,1.0,3.0,78,0.00,,SKC,0.00,VWS V13.00,2013-02-20 11:09:00,
2013-02-20 05:14:00,30.9,24.9,30.22,WNW,284,2.0,3.0,78,0.00,,SKC,0.00,VWS V13.00,2013-02-20 11:14:00,
2013-02-20 05:19:00,31.0,25.0,30.22,WNW,284,1.0,3.0,78,0.00,,SKC,0.00,VWS V13.00,2013-02-20 11:19:00,
2013-02-20 05:24:00,31.1,25.0,30.22,West,276,0.0,3.0,78,0.00,,SKC,0.00,VWS V13.00,2013-02-20 11:24:00,
2013-02-20 05:29:00,31.1,24.8,30.22,WNW,300,0.0,3.0,77,0.00,,SKC,0.00,VWS V13.00,2013-02-20 11:29:00,
2013-02-20 05:34:00,31.0,25.0,30.22,West,267,2.0,4.0,78,0.00,,SKC,0.00,VWS V13.00,2013-02-20 11:34:00,
2013-02-20 05:39:00,30.8,25.1,30.22,WSW,242,0.0,4.0,79,0.00,,SKC,0.00,VWS V13.00,2013-02-20 11:39:00,
2013-02-20 05:44:00,30.7,25.0,30.21,WSW,242,0.0,4.0,79,0.00,,SKC,0.00,VWS V13.00,2013-02-20 11:44:00,
2013-02-20 05:49:00,30.4,24.7,30.22,WSW,242,0.0,4.0,79,0.00,,SKC,0.00,VWS V13.00,2013-02-20 11:49:00,
2013-02-20 05:54:00,29.9,24.2,30.21,WSW,242,0.0,4.0,79,0.00,,SKC,0.00,VWS V13.00,2013-02-20 11:54:00,
2013-02-20 05:59:00,29.6,24.2,30.21,WSW,242,0.0,4.0,80,0.00,,SKC,0.00,VWS V13.00,2013-02-20 11:59:00,
2013-02-20 06:04:00,29.3,23.9,30.22,WSW,242,0.0,0.0,80,0.00,,SKC,0.00,VWS V13.00,2013-02-20 12:04:00,
2013-02-20 06:09:00,29.1,24.0,30.23,WSW,242,1.0,1.0,81,0.00,,SKC,0.00,VWS V13.00,2013-02-20 12:09:00,
2013-02-20 06:14:00,29.5,24.1,30.24,WSW,243,1.0,2.0,80,0.00,,SKC,0.00,VWS V13.00,2013-02-20 12:14:00,
2013-02-20 06:19:00,29.9,24.2,30.24,WSW,243,1.0,2.0,79,0.00,,SKC,0.00,VWS V13.00,2013-02-20 12:19:00,
2013-02-20 06:24:00,30.1,24.1,30.24,WSW,243,1.0,2.0,78,0.00,,SKC,0.00,VWS V13.00,2013-02-20 12:24:00,
2013-02-20 06:29:00,30.1,24.1,30.24,WSW,243,0.0,2.0,78,0.00,,SKC,0.00,VWS V13.00,2013-02-20 12:29:00,
2013-02-20 06:34:00,30.2,24.2,30.25,WSW,243,0.0,2.0,78,0.00,,SKC,0.00,VWS V13.00,2013-02-20 12:34:00,
2013-02-20 06:39:00,30.2,24.2,30.25,WSW,243,1.0,2.0,78,0.00,,SKC,0.00,VWS V13.00,2013-02-20 12:39:00,
2013-02-20 06:44:00,30.1,24.1,30.25,WSW,243,1.0,2.0,78,0.00,,SKC,0.00,VWS V13.00,2013-02-20 12:44:00,
2013-02-20 06:49:00,30.1,23.8,30.26,WSW,243,0.0,2.0,77,0.00,,SKC,0.00,VWS V13.00,2013-02-20 12:49:00,
2013-02-20 06:54:00,30.3,23.7,30.26,WNW,289,1.0,2.0,76,0.00,,SKC,0.00,VWS V13.00,2013-02-20 12:54:00,
2013-02-20 06:59:00,30.7,23.7,30.25,WNW,292,0.0,2.0,75,0.00,,SKC,0.00,VWS V13.00,2013-02-20 12:59:00,
2013-02-20 07:04:00,31.2,23.9,30.25,WNW,292,0.0,0.0,74,0.00,,SKC,0.00,VWS V13.00,2013-02-20 13:04:00,
2013-02-20 07:09:00,31.9,23.9,30.25,North,350,1.0,4.0,72,0.00,,SKC,0.00,VWS V13.00,2013-02-20 13:09:00,
2013-02-20 07:14:00,32.5,24.5,30.24,North,5,2.0,4.0,72,0.00,,SKC,0.00,VWS V13.00,2013-02-20 13:14:00,
2013-02-20 07:19:00,33.1,25.4,30.24,NNE,13,2.0,4.0,73,0.00,,SKC,0.00,VWS V13.00,2013-02-20 13:19:00,
2013-02-20 07:24:00,33.4,25.7,30.24,NNE,23,5.0,6.0,73,0.00,,SKC,0.00,VWS V13.00,2013-02-20 13:24:00,
2013-02-20 07:29:00,33.3,25.9,30.23,North,11,5.0,7.0,74,0.00,,SKC,0.00,VWS V13.00,2013-02-20 13:29:00,
2013-02-20 07:34:00,33.1,25.7,30.24,NNE,26,4.0,7.0,74,0.00,,SKC,0.00,VWS V13.00,2013-02-20 13:34:00,
2013-02-20 07:39:00,33.3,25.9,30.25,North,360,5.0,9.0,74,0.00,,SKC,0.00,VWS V13.00,2013-02-20 13:39:00,
2013-02-20 07:44:00,33.4,25.7,30.26,North,355,6.0,9.0,73,0.00,,SKC,0.00,VWS V13.00,2013-02-20 13:44:00,
2013-02-20 07:49:00,33.7,25.6,30.26,NNE,15,4.0,9.0,72,0.00,,SKC,0.00,VWS V13.00,2013-02-20 13:49:00,
2013-02-20 07:54:00,34.1,26.0,30.26,NNE,19,7.0,9.0,72,0.00,,SKC,0.00,VWS V13.00,2013-02-20 13:54:00,
2013-02-20 07:59:00,34.4,25.6,30.26,North,355,5.0,9.0,70,0.00,,SKC,0.00,VWS V13.00,2013-02-20 13:59:00,
2013-02-20 08:04:00,34.7,25.2,30.26,North,10,5.0,7.0,68,0.00,,SKC,0.00,VWS V13.00,2013-02-20 14:04:00,
2013-02-20 08:09:00,35.0,25.5,30.27,North,5,5.0,8.0,68,0.00,,SKC,0.00,VWS V13.00,2013-02-20 14:09:00,
2013-02-20 08:14:00,35.2,25.4,30.26,NNE,25,6.0,10.0,67,0.00,,SKC,0.00,VWS V13.00,2013-02-20 14:14:00,
2013-02-20 08:19:00,35.4,24.5,30.26,North,11,6.0,11.0,64,0.00,,SKC,0.00,VWS V13.00,2013-02-20 14:19:00,
2013-02-20 08:24:00,35.7,24.7,30.26,NNE,17,3.0,11.0,64,0.00,,SKC,0.00,VWS V13.00,2013-02-20 14:24:00,
2013-02-20 08:29:00,36.1,24.0,30.26,NNE,15,9.0,12.0,61,0.00,,SKC,0.00,VWS V13.00,2013-02-20 14:29:00,
2013-02-20 08:34:00,36.3,24.1,30.25,NE,34,11.0,12.0,61,0.00,,SKC,0.00,VWS V13.00,2013-02-20 14:34:00,
2013-02-20 08:39:00,36.3,21.7,30.25,NNE,29,5.0,12.0,55,0.00,,SKC,0.00,VWS V13.00,2013-02-20 14:39:00,
2013-02-20 08:44:00,36.6,22.4,30.24,NNE,13,7.0,14.0,56,0.00,,SKC,0.00,VWS V13.00,2013-02-20 14:44:00,
2013-02-20 08:49:00,37.1,22.9,30.24,NNE,19,5.0,14.0,56,0.00,,SKC,0.00,VWS V13.00,2013-02-20 14:49:00,
2013-02-20 08:54:00,37.2,23.0,30.23,NE,36,7.0,14.0,56,0.00,,SKC,0.00,VWS V13.00,2013-02-20 14:54:00,
2013-02-20 08:59:00,37.5,22.8,30.24,North,360,7.0,14.0,55,0.00,,SKC,0.00,VWS V13.00,2013-02-20 14:59:00,
2013-02-20 09:04:00,38.4,22.3,30.24,North,10,6.0,8.0,52,0.00,,SKC,0.00,VWS V13.00,2013-02-20 15:04:00,
2013-02-20 09:09:00,38.8,22.7,30.25,NNE,32,6.0,11.0,52,0.00,,SKC,0.00,VWS V13.00,2013-02-20 15:09:00,
2013-02-20 09:14:00,39.2,20.7,30.25,NNE,17,7.0,11.0,47,0.00,,SKC,0.00,VWS V13.00,2013-02-20 15:14:00,
2013-02-20 09:19:00,39.3,21.3,30.25,NNW,348,5.0,11.0,48,0.00,,SKC,0.00,VWS V13.00,2013-02-20 15:19:00,
2013-02-20 09:24:00,39.5,19.9,30.25,North,360,8.0,14.0,45,0.00,,SKC,0.00,VWS V13.00,2013-02-20 15:24:00,
2013-02-20 09:29:00,40.1,21.5,30.25,North,355,11.0,14.0,47,0.00,,SKC,0.00,VWS V13.00,2013-02-20 15:29:00,
2013-02-20 09:34:00,40.1,18.3,30.25,NNE,12,9.0,9.0,41,0.00,,SKC,0.00,VWS V13.00,2013-02-20 15:34:00,
2013-02-20 09:39:00,39.4,19.8,30.26,North,5,9.0,12.0,45,0.00,,SKC,0.00,VWS V13.00,2013-02-20 15:39:00,
2013-02-20 09:44:00,39.1,18.5,30.26,NNW,344,8.0,12.0,43,0.00,,SKC,0.00,VWS V13.00,2013-02-20 15:44:00,
2013-02-20 09:49:00,38.7,17.6,30.26,NNE,15,5.0,12.0,42,0.00,,SKC,0.00,VWS V13.00,2013-02-20 15:49:00,
2013-02-20 09:54:00,38.5,18.0,30.26,North,355,7.0,12.0,43,0.00,,SKC,0.00,VWS V13.00,2013-02-20 15:54:00,
2013-02-20 09:59:00,38.3,18.3,30.25,North,355,6.0,12.0,44,0.00,,SKC,0.00,VWS V13.00,2013-02-20 15:59:00,
2013-02-20 10:04:00,38.6,19.1,30.26,North,5,6.0,7.0,45,0.00,,SKC,0.00,VWS V13.00,2013-02-20 16:04:00,
2013-02-20 10:08:00,39.6,18.4,30.26,North,5,8.0,10.0,42,0.00,,SKC,0.00,VWS V13.00,2013-02-20 16:08:00,
2013-02-20 10:13:00,40.0,19.9,30.25,North,10,5.0,10.0,44,0.00,,SKC,0.00,VWS V13.00,2013-02-20 16:13:00,
2013-02-20 10:18:00,40.1,19.4,30.25,NNE,32,6.0,11.0,43,0.00,,SKC,0.00,VWS V13.00,2013-02-20 16:18:00,
2013-02-20 10:23:00,40.1,17.1,30.25,NNE,12,9.0,11.0,39,0.00,,SKC,0.00,VWS V13.00,2013-02-20 16:23:00,
2013-02-20 10:28:00,40.1,16.5,30.25,North,9,10.0,11.0,38,0.00,,SKC,0.00,VWS V13.00,2013-02-20 16:28:00,
2013-02-20 10:33:00,40.4,17.4,30.25,North,355,9.0,11.0,39,0.00,,SKC,0.00,VWS V13.00,2013-02-20 16:33:00,
2013-02-20 10:38:00,40.4,17.4,30.26,NNW,341,7.0,12.0,39,0.00,,SKC,0.00,VWS V13.00,2013-02-20 16:38:00,
2013-02-20 10:43:00,40.2,17.8,30.26,NNE,28,2.0,12.0,40,0.00,,SKC,0.00,VWS V13.00,2013-02-20 16:43:00,
2013-02-20 10:48:00,40.5,17.5,30.25,NNW,340,7.0,12.0,39,0.00,,SKC,0.00,VWS V13.00,2013-02-20 16:48:00,
2013-02-20 10:53:00,40.2,17.2,30.25,NNE,16,6.0,12.0,39,0.00,,SKC,0.00,VWS V13.00,2013-02-20 16:53:00,
2013-02-20 10:58:00,40.3,16.7,30.26,NW,321,6.0,12.0,38,0.00,,SKC,0.00,VWS V13.00,2013-02-20 16:58:00,
2013-02-20 11:03:00,40.8,18.4,30.26,NNE,27,5.0,10.0,40,0.00,,SKC,0.00,VWS V13.00,2013-02-20 17:03:00,
2013-02-20 11:08:00,40.9,16.6,30.26,NE,43,10.0,11.0,37,0.00,,SKC,0.00,VWS V13.00,2013-02-20 17:08:00,
2013-02-20 11:13:00,41.7,17.4,30.25,NE,48,8.0,11.0,37,0.00,,SKC,0.00,VWS V13.00,2013-02-20 17:13:00,
2013-02-20 11:18:00,42.0,18.2,30.25,North,5,2.0,11.0,38,0.00,,SKC,0.00,VWS V13.00,2013-02-20 17:18:00,
2013-02-20 11:23:00,41.8,17.5,30.26,NW,306,4.0,11.0,37,0.00,,SKC,0.00,VWS V13.00,2013-02-20 17:23:00,
2013-02-20 11:28:00,42.0,18.9,30.25,NNE,18,6.0,11.0,39,0.00,,SKC,0.00,VWS V13.00,2013-02-20 17:28:00,
2013-02-20 11:33:00,42.4,16.0,30.25,NE,36,6.0,9.0,34,0.00,,SKC,0.00,VWS V13.00,2013-02-20 17:33:00,
2013-02-20 11:38:00,43.0,16.6,30.25,NNE,13,7.0,11.0,34,0.00,,SKC,0.00,VWS V13.00,2013-02-20 17:38:00,
2013-02-20 11:43:00,43.1,16.7,30.24,NE,55,5.0,12.0,34,0.00,,SKC,0.00,VWS V13.00,2013-02-20 17:43:00,
2013-02-20 11:48:00,43.0,17.9,30.24,NNE,12,6.0,12.0,36,0.00,,SKC,0.00,VWS V13.00,2013-02-20 17:48:00,
2013-02-20 11:53:00,43.5,16.3,30.24,North,360,8.0,12.0,33,0.00,,SKC,0.00,VWS V13.00,2013-02-20 17:53:00,
2013-02-20 11:58:00,43.4,16.9,30.24,North,360,5.0,12.0,34,0.00,,SKC,0.00,VWS V13.00,2013-02-20 17:58:00,
2013-02-20 12:03:00,43.8,16.6,30.24,NNE,30,8.0,10.0,33,0.00,,SKC,0.00,VWS V13.00,2013-02-20 18:03:00,
2013-02-20 12:08:00,44.0,16.0,30.23,NW,321,6.0,10.0,32,0.00,,SKC,0.00,VWS V13.00,2013-02-20 18:08:00,
2013-02-20 12:13:00,44.0,16.0,30.23,NNE,13,4.0,10.0,32,0.00,,SKC,0.00,VWS V13.00,2013-02-20 18:13:00,
2013-02-20 12:18:00,43.8,15.1,30.23,NE,44,6.0,10.0,31,0.00,,SKC,0.00,VWS V13.00,2013-02-20 18:18:00,
2013-02-20 12:23:00,43.3,14.0,30.23,NNW,340,6.0,10.0,30,0.00,,SKC,0.00,VWS V13.00,2013-02-20 18:23:00,
2013-02-20 12:28:00,43.1,13.8,30.23,NNW,346,5.0,10.0,30,0.00,,SKC,0.00,VWS V13.00,2013-02-20 18:28:00,
2013-02-20 12:33:00,43.2,15.4,30.23,North,10,4.0,12.0,32,0.00,,SKC,0.00,VWS V13.00,2013-02-20 18:33:00,
2013-02-20 12:38:00,43.2,14.6,30.23,NNE,33,3.0,12.0,31,0.00,,SKC,0.00,VWS V13.00,2013-02-20 18:38:00,
2013-02-20 12:43:00,43.2,13.1,30.23,NW,314,6.0,13.0,29,0.00,,SKC,0.00,VWS V13.00,2013-02-20 18:43:00,
2013-02-20 12:48:00,43.3,12.4,30.23,NW,321,4.0,13.0,28,0.00,,SKC,0.00,VWS V13.00,2013-02-20 18:48:00,
2013-02-20 12:53:00,43.4,12.5,30.22,North,11,10.0,13.0,28,0.00,,SKC,0.00,VWS V13.00,2013-02-20 18:53:00,
2013-02-20 12:58:00,43.3,13.2,30.23,NW,311,8.0,13.0,29,0.00,,SKC,0.00,VWS V13.00,2013-02-20 18:58:00,
2013-02-20 13:03:00,43.1,11.4,30.23,NNW,342,6.0,10.0,27,0.00,,SKC,0.00,VWS V13.00,2013-02-20 19:03:00,
2013-02-20 13:08:00,43.0,11.3,30.23,NNW,346,10.0,11.0,27,0.00,,SKC,0.00,VWS V13.00,2013-02-20 19:08:00,
2013-02-20 13:13:00,43.0,12.1,30.23,NNW,332,7.0,12.0,28,0.00,,SKC,0.00,VWS V13.00,2013-02-20 19:13:00,
2013-02-20 13:18:00,43.0,12.9,30.23,NNW,341,8.0,12.0,29,0.00,,SKC,0.00,VWS V13.00,2013-02-20 19:18:00,
2013-02-20 13:23:00,42.9,12.1,30.23,NW,322,10.0,12.0,28,0.00,,SKC,0.00,VWS V13.00,2013-02-20 19:23:00,
2013-02-20 13:28:00,43.0,12.9,30.23,North,355,6.0,12.0,29,0.00,,SKC,0.00,VWS V13.00,2013-02-20 19:28:00,
2013-02-20 13:33:00,42.8,16.4,30.23,NNW,333,3.0,5.0,34,0.00,,SKC,0.00,VWS V13.00,2013-02-20 19:33:00,
2013-02-20 13:38:00,42.7,17.6,30.23,NW,313,5.0,9.0,36,0.00,,SKC,0.00,VWS V13.00,2013-02-20 19:38:00,
2013-02-20 13:43:00,42.4,18.6,30.23,NW,313,7.0,10.0,38,0.00,,SKC,0.00,VWS V13.00,2013-02-20 19:43:00,
2013-02-20 13:48:00,42.1,19.5,30.23,NW,319,6.0,10.0,40,0.00,,SKC,0.00,VWS V13.00,2013-02-20 19:48:00,
2013-02-20 13:53:00,41.8,21.0,30.23,NNW,347,8.0,10.0,43,0.00,,SKC,0.00,VWS V13.00,2013-02-20 19:53:00,
2013-02-20 13:58:00,41.5,19.6,30.23,NW,311,5.0,10.0,41,0.00,,SKC,0.00,VWS V13.00,2013-02-20 19:58:00,
2013-02-20 14:03:00,41.4,20.6,30.24,NW,310,8.0,8.0,43,0.00,,SKC,0.00,VWS V13.00,2013-02-20 20:03:00,
2013-02-20 14:08:00,41.3,21.6,30.24,NW,311,4.0,9.0,45,0.00,,SKC,0.00,VWS V13.00,2013-02-20 20:08:00,
2013-02-20 14:13:00,41.1,21.4,30.24,WNW,294,6.0,9.0,45,0.00,,SKC,0.00,VWS V13.00,2013-02-20 20:13:00,
2013-02-20 14:18:00,41.1,21.9,30.23,WNW,296,7.0,10.0,46,0.00,,SKC,0.00,VWS V13.00,2013-02-20 20:18:00,
2013-02-20 14:23:00,41.0,21.3,30.24,NW,323,7.0,10.0,45,0.00,,SKC,0.00,VWS V13.00,2013-02-20 20:23:00,
2013-02-20 14:28:00,40.8,21.6,30.24,NW,314,4.0,10.0,46,0.00,,SKC,0.00,VWS V13.00,2013-02-20 20:28:00,
2013-02-20 14:33:00,40.7,21.5,30.24,WNW,298,7.0,7.0,46,0.00,,SKC,0.00,VWS V13.00,2013-02-20 20:33:00,
2013-02-20 14:38:00,40.6,22.0,30.24,WNW,295,7.0,10.0,47,0.00,,SKC,0.00,VWS V13.00,2013-02-20 20:38:00,
2013-02-20 14:43:00,40.5,21.9,30.24,NNW,340,4.0,10.0,47,0.00,,SKC,0.00,VWS V13.00,2013-02-20 20:43:00,
2013-02-20 14:48:00,40.4,21.3,30.25,NNW,327,4.0,10.0,46,0.00,,SKC,0.00,VWS V13.00,2013-02-20 20:48:00,
2013-02-20 14:53:00,40.3,21.7,30.25,WNW,300,5.0,10.0,47,0.00,,SKC,0.00,VWS V13.00,2013-02-20 20:53:00,
2013-02-20 14:58:00,40.2,22.1,30.25,NW,307,3.0,10.0,48,0.00,,SKC,0.00,VWS V13.00,2013-02-20 20:58:00,
2013-02-20 15:03:00,40.2,22.1,30.25,WNW,301,5.0,7.0,48,0.00,,SKC,0.00,VWS V13.00,2013-02-20 21:03:00,
2013-02-20 15:08:00,40.1,22.5,30.25,NW,304,5.0,8.0,49,0.00,,SKC,0.00,VWS V13.00,2013-02-20 21:08:00,
2013-02-20 15:13:00,40.1,21.5,30.26,NW,307,5.0,10.0,47,0.00,,SKC,0.00,VWS V13.00,2013-02-20 21:13:00,
2013-02-20 15:18:00,40.1,22.5,30.25,NW,311,5.0,10.0,49,0.00,,SKC,0.00,VWS V13.00,2013-02-20 21:18:00,
2013-02-20 15:23:00,40.2,21.6,30.25,North,355,0.0,10.0,47,0.00,,SKC,0.00,VWS V13.00,2013-02-20 21:23:00,
2013-02-20 15:28:00,40.3,21.7,30.24,North,351,0.0,10.0,47,0.00,,SKC,0.00,VWS V13.00,2013-02-20 21:28:00,
2013-02-20 15:33:00,40.4,20.8,30.24,North,360,3.0,6.0,45,0.00,,SKC,0.00,VWS V13.00,2013-02-20 21:33:00,
2013-02-20 15:38:00,40.4,21.8,30.24,North,5,2.0,6.0,47,0.00,,SKC,0.00,VWS V13.00,2013-02-20 21:38:00,
2013-02-20 15:43:00,40.4,21.3,30.23,North,9,4.0,6.0,46,0.00,,SKC,0.00,VWS V13.00,2013-02-20 21:43:00,
2013-02-20 15:48:00,40.2,21.6,30.22,NE,37,5.0,7.0,47,0.00,,SKC,0.00,VWS V13.00,2013-02-20 21:48:00,
2013-02-20 15:53:00,40.2,21.1,30.22,NNW,348,2.0,8.0,46,0.00,,SKC,0.00,VWS V13.00,2013-02-20 21:53:00,
2013-02-20 15:58:00,40.2,22.1,30.21,NNE,19,4.0,8.0,48,0.00,,SKC,0.00,VWS V13.00,2013-02-20 21:58:00,
2013-02-20 16:03:00,40.2,23.1,30.20,NNE,33,5.0,8.0,50,0.00,,SKC,0.00,VWS V13.00,2013-02-20 22:03:00,
2013-02-20 16:08:00,40.2,23.1,30.19,NNE,25,4.0,8.0,50,0.00,,SKC,0.00,VWS V13.00,2013-02-20 22:08:00,
2013-02-20 16:13:00,40.3,22.2,30.19,NE,45,6.0,9.0,48,0.00,,SKC,0.00,VWS V13.00,2013-02-20 22:13:00,
2013-02-20 16:18:00,40.4,22.8,30.18,NE,50,10.0,11.0,49,0.00,,SKC,0.00,VWS V13.00,2013-02-20 22:18:00,
2013-02-20 16:23:00,40.4,23.2,30.18,NNE,28,9.0,11.0,50,0.00,,SKC,0.00,VWS V13.00,2013-02-20 22:23:00,
2013-02-20 16:28:00,40.4,24.2,30.17,NE,55,6.0,11.0,52,0.00,,SKC,0.00,VWS V13.00,2013-02-20 22:28:00,
2013-02-20 16:33:00,40.5,23.8,30.16,NE,55,5.0,9.0,51,0.00,,SKC,0.00,VWS V13.00,2013-02-20 22:33:00,
2013-02-20 16:38:00,40.5,24.3,30.16,NE,37,7.0,11.0,52,0.00,,SKC,0.00,VWS V13.00,2013-02-20 22:38:00,
2013-02-20 16:43:00,40.4,23.2,30.16,NE,52,10.0,11.0,50,0.00,,SKC,0.00,VWS V13.00,2013-02-20 22:43:00,
2013-02-20 16:48:00,40.4,22.8,30.17,NNE,32,6.0,11.0,49,0.00,,SKC,0.00,VWS V13.00,2013-02-20 22:48:00,
2013-02-20 16:53:00,40.5,21.9,30.17,NE,46,8.0,11.0,47,0.00,,SKC,0.00,VWS V13.00,2013-02-20 22:53:00,
2013-02-20 16:58:00,40.5,20.9,30.17,NE,47,5.0,11.0,45,0.00,,SKC,0.00,VWS V13.00,2013-02-20 22:58:00,
2013-02-20 17:03:00,40.5,18.1,30.17,NE,56,8.0,10.0,40,0.00,,SKC,0.00,VWS V13.00,2013-02-20 23:03:00,
2013-02-20 17:08:00,40.5,15.7,30.17,NE,53,8.0,11.0,36,0.00,,SKC,0.00,VWS V13.00,2013-02-20 23:08:00,
2013-02-20 17:13:00,40.4,15.6,30.17,NNE,30,8.0,11.0,36,0.00,,SKC,0.00,VWS V13.00,2013-02-20 23:13:00,
2013-02-20 17:18:00,40.3,15.5,30.17,NE,41,8.0,11.0,36,0.00,,SKC,0.00,VWS V13.00,2013-02-20 23:18:00,
2013-02-20 17:23:00,40.2,15.4,30.17,NE,40,7.0,11.0,36,0.00,,SKC,0.00,VWS V13.00,2013-02-20 23:23:00,
2013-02-20 17:28:00,40.1,15.9,30.17,NE,42,11.0,11.0,37,0.00,,SKC,0.00,VWS V13.00,2013-02-20 23:28:00,
2013-02-20 17:33:00,40.0,15.2,30.17,NE,46,10.0,10.0,36,0.00,,SKC,0.00,VWS V13.00,2013-02-20 23:33:00,
2013-02-20 17:38:00,39.9,15.8,30.16,NE,36,6.0,10.0,37,0.00,,SKC,0.00,VWS V13.00,2013-02-20 23:38:00,
2013-02-20 17:43:00,39.8,16.3,30.17,NNE,32,7.0,11.0,38,0.00,,SKC,0.00,VWS V13.00,2013-02-20 23:43:00,
2013-02-20 17:48:00,39.8,16.9,30.17,NNE,25,6.0,11.0,39,0.00,,SKC,0.00,VWS V13.00,2013-02-20 23:48:00,
2013-02-20 17:53:00,39.8,16.9,30.18,NNE,24,5.0,11.0,39,0.00,,SKC,0.00,VWS V13.00,2013-02-20 23:53:00,
2013-02-20 17:58:00,39.7,17.4,30.17,NE,39,4.0,11.0,40,0.00,,SKC,0.00,VWS V13.00,2013-02-20 23:58:00,
2013-02-20 18:03:00,39.5,16.6,30.17,North,11,5.0,6.0,39,0.00,,SKC,0.00,VWS V13.00,2013-02-21 00:03:00,
2013-02-20 18:08:00,39.5,16.6,30.18,NNE,22,2.0,7.0,39,0.00,,SKC,0.00,VWS V13.00,2013-02-21 00:08:00,
2013-02-20 18:13:00,39.5,18.3,30.18,North,5,0.0,7.0,42,0.00,,SKC,0.00,VWS V13.00,2013-02-21 00:13:00,
2013-02-20 18:18:00,39.3,17.6,30.18,NNE,24,0.0,7.0,41,0.00,,SKC,0.00,VWS V13.00,2013-02-21 00:18:00,
2013-02-20 18:23:00,39.3,18.1,30.17,NE,44,2.0,7.0,42,0.00,,SKC,0.00,VWS V13.00,2013-02-21 00:23:00,
2013-02-20 18:28:00,39.2,19.1,30.17,NNE,30,2.0,7.0,44,0.00,,SKC,0.00,VWS V13.00,2013-02-21 00:28:00,
2013-02-20 18:33:00,39.1,18.0,30.17,NNE,30,4.0,5.0,42,0.00,,SKC,0.00,VWS V13.00,2013-02-21 00:33:00,
2013-02-20 18:38:00,39.1,19.6,30.18,NNE,22,2.0,5.0,45,0.00,,SKC,0.00,VWS V13.00,2013-02-21 00:38:00,
2013-02-20 18:43:00,39.1,19.6,30.17,NNE,32,5.0,7.0,45,0.00,,SKC,0.00,VWS V13.00,2013-02-21 00:43:00,
2013-02-20 18:48:00,39.0,19.0,30.18,NNE,27,3.0,7.0,44,0.00,,SKC,0.00,VWS V13.00,2013-02-21 00:48:00,
2013-02-20 18:53:00,38.9,19.4,30.18,NNE,30,6.0,7.0,45,0.00,,SKC,0.00,VWS V13.00,2013-02-21 00:53:00,
2013-02-20 18:57:00,38.8,18.8,30.18,NNE,17,2.0,7.0,44,0.00,,SKC,0.00,VWS V13.00,2013-02-21 00:57:00,
2013-02-20 19:02:00,38.7,19.2,30.18,NNE,17,2.0,4.0,45,0.00,,SKC,0.00,VWS V13.00,2013-02-21 01:02:00,
2013-02-20 19:07:00,38.6,19.1,30.18,North,360,4.0,5.0,45,0.00,,SKC,0.00,VWS V13.00,2013-02-21 01:07:00,
2013-02-20 19:12:00,38.6,19.6,30.18,NNE,19,1.0,5.0,46,0.00,,SKC,0.00,VWS V13.00,2013-02-21 01:12:00,
2013-02-20 19:17:00,38.6,19.6,30.19,North,9,2.0,5.0,46,0.00,,SKC,0.00,VWS V13.00,2013-02-21 01:17:00,
2013-02-20 19:22:00,38.7,20.2,30.18,NNE,12,3.0,5.0,47,0.00,,SKC,0.00,VWS V13.00,2013-02-21 01:22:00,
2013-02-20 19:27:00,38.7,20.2,30.17,NNE,26,2.0,5.0,47,0.00,,SKC,0.00,VWS V13.00,2013-02-21 01:27:00,
2013-02-20 19:32:00,38.7,20.7,30.17,NNE,18,1.0,1.0,48,0.00,,SKC,0.00,VWS V13.00,2013-02-21 01:32:00,
2013-02-20 19:37:00,38.7,20.2,30.17,NNE,28,2.0,4.0,47,0.00,,SKC,0.00,VWS V13.00,2013-02-21 01:37:00,
2013-02-20 19:42:00,38.8,20.3,30.17,NNE,26,2.0,5.0,47,0.00,,SKC,0.00,VWS V13.00,2013-02-21 01:42:00,
2013-02-20 19:47:00,38.8,19.8,30.18,NNE,27,3.0,6.0,46,0.00,,SKC,0.00,VWS V13.00,2013-02-21 01:47:00,
2013-02-20 19:52:00,38.7,20.2,30.18,North,5,4.0,6.0,47,0.00,,SKC,0.00,VWS V13.00,2013-02-21 01:52:00,
2013-02-20 19:57:00,38.6,20.6,30.19,NNE,19,2.0,6.0,48,0.00,,SKC,0.00,VWS V13.00,2013-02-21 01:57:00,
2013-02-20 20:02:00,38.6,21.6,30.19,North,349,2.0,2.0,50,0.00,,SKC,0.00,VWS V13.00,2013-02-21 02:02:00,
2013-02-20 20:07:00,38.6,21.1,30.19,NNE,32,1.0,5.0,49,0.00,,SKC,0.00,VWS V13.00,2013-02-21 02:07:00,
2013-02-20 20:12:00,38.5,20.5,30.19,North,360,4.0,5.0,48,0.00,,SKC,0.00,VWS V13.00,2013-02-21 02:12:00,
2013-02-20 20:17:00,38.5,20.0,30.18,NE,39,5.0,6.0,47,0.00,,SKC,0.00,VWS V13.00,2013-02-21 02:17:00,
2013-02-20 20:22:00,38.5,20.5,30.18,NE,50,4.0,6.0,48,0.00,,SKC,0.00,VWS V13.00,2013-02-21 02:22:00,
2013-02-20 20:27:00,38.5,20.0,30.18,NE,39,6.0,9.0,47,0.00,,SKC,0.00,VWS V13.00,2013-02-21 02:27:00,
2013-02-20 20:32:00,38.5,21.0,30.18,NNE,33,5.0,7.0,49,0.00,,SKC,0.00,VWS V13.00,2013-02-21 02:32:00,
2013-02-20 20:37:00,38.4,20.4,30.18,ENE,66,8.0,8.0,48,0.00,,SKC,0.00,VWS V13.00,2013-02-21 02:37:00,
2013-02-20 20:42:00,38.4,19.4,30.18,ENE,60,6.0,8.0,46,0.00,,SKC,0.00,VWS V13.00,2013-02-21 02:42:00,
2013-02-20 20:47:00,38.3,19.4,30.18,ENE,64,4.0,8.0,46,0.00,,SKC,0.00,VWS V13.00,2013-02-21 02:47:00,
2013-02-20 20:52:00,38.2,19.8,30.18,East,92,4.0,8.0,47,0.00,,SKC,0.00,VWS V13.00,2013-02-21 02:52:00,
2013-02-20 20:57:00,38.2,20.2,30.18,ESE,103,1.0,8.0,48,0.00,,SKC,0.00,VWS V13.00,2013-02-21 02:57:00,
2013-02-20 21:02:00,38.1,20.2,30.18,East,98,1.0,1.0,48,0.00,,SKC,0.00,VWS V13.00,2013-02-21 03:02:00,
2013-02-20 21:07:00,38.0,20.1,30.18,ENE,63,6.0,7.0,48,0.00,,SKC,0.00,VWS V13.00,2013-02-21 03:07:00,
2013-02-20 21:12:00,38.0,20.1,30.19,NNE,20,2.0,7.0,48,0.00,,SKC,0.00,VWS V13.00,2013-02-21 03:12:00,
2013-02-20 21:17:00,37.9,20.5,30.19,NNE,14,1.0,7.0,49,0.00,,SKC,0.00,VWS V13.00,2013-02-21 03:17:00,
2013-02-20 21:22:00,37.8,20.4,30.20,North,5,4.0,7.0,49,0.00,,SKC,0.00,VWS V13.00,2013-02-21 03:22:00,
2013-02-20 21:27:00,37.8,20.4,30.20,NNE,13,1.0,7.0,49,0.00,,SKC,0.00,VWS V13.00,2013-02-21 03:27:00,
2013-02-20 21:32:00,37.9,20.5,30.20,NNE,25,1.0,2.0,49,0.00,,SKC,0.00,VWS V13.00,2013-02-21 03:32:00,
2013-02-20 21:37:00,37.9,20.0,30.20,NE,38,1.0,4.0,48,0.00,,SKC,0.00,VWS V13.00,2013-02-21 03:37:00,
2013-02-20 21:42:00,37.9,20.9,30.20,NNE,25,3.0,4.0,50,0.00,,SKC,0.00,VWS V13.00,2013-02-21 03:42:00,
2013-02-20 21:47:00,37.9,20.5,30.20,NE,36,5.0,8.0,49,0.00,,SKC,0.00,VWS V13.00,2013-02-21 03:47:00,
2013-02-20 21:52:00,37.9,21.4,30.20,NNE,32,2.0,8.0,51,0.00,,SKC,0.00,VWS V13.00,2013-02-21 03:52:00,
2013-02-20 21:57:00,37.9,21.9,30.19,NE,52,5.0,8.0,52,0.00,,SKC,0.00,VWS V13.00,2013-02-21 03:57:00,
2013-02-20 22:02:00,37.9,21.9,30.18,ENE,65,4.0,4.0,52,0.00,,SKC,0.00,VWS V13.00,2013-02-21 04:02:00,
2013-02-20 22:07:00,37.7,21.2,30.19,NNE,22,5.0,6.0,51,0.00,,SKC,0.00,VWS V13.00,2013-02-21 04:07:00,
2013-02-20 22:12:00,37.5,21.5,30.19,NNE,30,6.0,6.0,52,0.00,,SKC,0.00,VWS V13.00,2013-02-21 04:12:00,
2013-02-20 22:17:00,37.4,21.9,30.17,NE,51,4.0,7.0,53,0.00,,SKC,0.00,VWS V13.00,2013-02-21 04:17:00,
2013-02-20 22:22:00,37.5,21.0,30.17,NE,53,5.0,7.0,51,0.00,,SKC,0.00,VWS V13.00,2013-02-21 04:22:00,
2013-02-20 22:27:00,37.5,21.5,30.17,NE,38,2.0,7.0,52,0.00,,SKC,0.00,VWS V13.00,2013-02-21 04:27:00,
2013-02-20 22:32:00,37.6,21.1,30.17,NNE,31,5.0,6.0,51,0.00,,SKC,0.00,VWS V13.00,2013-02-21 04:32:00,
2013-02-20 22:37:00,37.6,21.6,30.17,NE,37,4.0,6.0,52,0.00,,SKC,0.00,VWS V13.00,2013-02-21 04:37:00,
2013-02-20 22:42:00,37.6,22.5,30.17,NE,55,1.0,6.0,54,0.00,,SKC,0.00,VWS V13.00,2013-02-21 04:42:00,
2013-02-20 22:47:00,37.6,21.6,30.17,NE,42,1.0,6.0,52,0.00,,SKC,0.00,VWS V13.00,2013-02-21 04:47:00,
2013-02-20 22:52:00,37.6,22.0,30.17,NE,52,4.0,6.0,53,0.00,,SKC,0.00,VWS V13.00,2013-02-21 04:52:00,
2013-02-20 22:57:00,37.6,21.6,30.17,ENE,64,0.0,6.0,52,0.00,,SKC,0.00,VWS V13.00,2013-02-21 04:57:00,
2013-02-20 23:00:00,37.5,22.4,30.18,ENE,64,0.0,6.0,54,0.00,,SKC,0.00,VWS V13.00,2013-02-21 05:00:00,
2013-02-20 23:05:00,37.5,21.9,30.17,ENE,64,1.0,3.0,53,0.00,,SKC,0.00,VWS V13.00,2013-02-21 05:05:00,
2013-02-20 23:10:00,37.4,23.1,30.17,NNE,26,1.0,3.0,56,0.00,,SKC,0.00,VWS V13.00,2013-02-21 05:10:00,
2013-02-20 23:15:00,37.4,22.7,30.18,NNE,26,0.0,3.0,55,0.00,,SKC,0.00,VWS V13.00,2013-02-21 05:15:00,
2013-02-20 23:20:00,37.4,22.3,30.18,NNE,13,2.0,4.0,54,0.00,,SKC,0.00,VWS V13.00,2013-02-21 05:20:00,
2013-02-20 23:25:00,37.4,21.9,30.17,NNE,19,1.0,4.0,53,0.00,,SKC,0.00,VWS V13.00,2013-02-21 05:25:00,
2013-02-20 23:30:00,37.4,22.7,30.17,NE,54,0.0,4.0,55,0.00,,SKC,0.00,VWS V13.00,2013-02-21 05:30:00,
2013-02-20 23:35:00,37.4,21.9,30.17,NE,38,1.0,5.0,53,0.00,,SKC,0.00,VWS V13.00,2013-02-21 05:35:00,
2013-02-20 23:40:00,37.4,22.7,30.16,NE,44,4.0,5.0,55,0.00,,SKC,0.00,VWS V13.00,2013-02-21 05:40:00,
2013-02-20 23:45:00,37.5,21.9,30.16,NNE,20,2.0,5.0,53,0.00,,SKC,0.00,VWS V13.00,2013-02-21 05:45:00,
2013-02-20 23:50:00,37.5,22.4,30.16,NE,40,4.0,5.0,54,0.00,,SKC,0.00,VWS V13.00,2013-02-21 05:50:00,
2013-02-20 23:55:00,37.4,22.7,30.16,NE,50,0.0,5.0,55,0.00,,SKC,0.00,VWS V13.00,2013-02-21 05:55:00,